Regional Weather Roundup
Issued by NWS Cleveland, OH

Home | Current Version | Previous Version | Graphics & Text | Print | Product List | Glossary On
Versions: 1 2 3 4 5 6 7 8 9 10 11 12 13 14 15 16 17 18 19 20 21 22 23 24 25 26 27 28 29 30 31 32 33 34 35 36 37 38 39 40 41 42 43 44 45 46 47 48 49 50
000
ASUS41 KCLE 030902
RWRCLE
OHIO REGIONAL WEATHER ROUNDUP
NATIONAL WEATHER SERVICE CLEVELAND, OH
500 AM EDT SUN MAY 03 2015

NOTE: "FAIR" INDICATES FEW OR NO CLOUDS BELOW 12,000 FEET WITH NO
SIGNIFICANT WEATHER AND/OR OBSTRUCTIONS TO VISIBILITY.

OHZ001>008-015>018-024>027-034-035-043-044-031000-
   NORTHWEST OHIO

CITY           SKY/WX    TMP DP  RH WIND       PRES   REMARKS
DEFIANCE       PTCLDY    51  43  74 S3        30.04S
FINDLAY        PTCLDY    53  42  66 S6        30.05R
TOLEDO EXPRESS PTCLDY    47  41  80 CALM      30.03S
TOLEDO EXEC    PTCLDY    52  41  66 SW6       30.05R
LIMA           PTCLDY    51  42  71 S7        30.06R
$$

OHZ009>014-019>023-028>033-038-089-031000-
   NORTHEAST OHIO

CITY           SKY/WX    TMP DP  RH WIND       PRES   REMARKS
CLE-HOPKINS    CLEAR     48  40  73 S5        30.07R
CLE-LAKEFRONT  CLEAR     57  41  55 S7        30.03R
CUY CO. ARPT   NOT AVBL
LORAIN-ELYRIA  CLEAR     52  41  66 SW6       30.05R
ASHTABULA      PTCLDY    50  38  63 CALM      30.06R
AKRON-CANTON   CLEAR     54  41  61 CALM      30.07R
WOOSTER        CLEAR     45  40  82 CALM      30.08R
MANSFIELD      CLEAR     51  40  65 S5        30.07R
YOUNGSTOWN     PTCLDY    56  37  49 S6        30.06R
$$

OHZ042-051>053-060>062-070>072-077>081-031000-
  SOUTHWEST OHIO

CITY           SKY/WX    TMP DP  RH WIND       PRES   REMARKS
CINC-COVINGTON PTCLDY    50  46  86 CALM      30.09R
CINC-LUNKEN    CLEAR     46  46 100 CALM      30.10R FOG
HAMILTON       CLEAR     47  45  93 CALM      30.10R FOG
DAYTON         MOCLDY    56  44  64 SW7       30.08S
WRIGHT-PAT AFB MOCLDY    50  45  83 CALM      30.08R
DAYTON GENERAL PTCLDY    54  43  66 SW3       30.08R
WILMINGTON     PTCLDY    53  42  66 CALM      30.09R
$$

OHZ036-037-039>041-045>050-054>059-063>069-073>076-082>088-031000-
  CENTRAL AND SOUTHEAST OHIO

CITY           SKY/WX    TMP DP  RH WIND       PRES   REMARKS
COLUMBUS       PTCLDY    50  45  83 CALM      30.08R
OSU AIRPORT    PTCLDY    51  42  71 CALM      30.07R
BOLTON FIELD   NOT AVBL
RICKENBACK AFB NOT AVBL
NEWARK         CLEAR     44  42  93 CALM      30.08R
MARION         PTCLDY    50  41  71 S6        30.07R
LANCASTER      CLEAR     46  43  89 CALM      30.09R
ZANESVILLE     CLEAR     45  41  86 CALM      30.08R
NEW PHILLY     CLEAR     47  41  80 CALM      30.08R
$$


USA.gov is the U.S. government's official web portal to all federal, state and local government web resources and services.